GW7203 Weather Reports


Display with metric or nautical units.
time (UTC)temp
F
wind
direction
speed
MPH
gust
MPH
rain 1hr
in
rain 24hr
in
rain mn
in
humidity
%
barometer
mb
20260508111330 49 126 1.0 2.0 0.00 0.00 0.00 84 1000.0
20260508111130 49 88 1.0 1.0 0.00 0.00 0.00 83 1000.1
20260508110930 49 88 1.0 1.0 0.00 0.00 0.00 83 1000.1
20260508110730 49 88 1.0 2.0 0.00 0.00 0.00 81 1000.2
20260508110331 50 94 0.0 1.0 0.00 0.00 0.00 81 1000.2
20260508110131 50 106 1.0 1.0 0.00 0.00 0.00 81 999.9
20260508105931 49 96 0.0 0.0 0.00 0.00 0.00 82 1000.1
20260508105531 49 96 1.0 1.0 0.00 0.00 0.00 83 1000.1
20260508104731 48 95 0.0 0.0 0.00 0.00 0.00 90 1000.0
20260508104531 48 95 0.0 0.0 0.00 0.00 0.00 87 1000.0
20260508104331 48 95 0.0 0.0 0.00 0.00 0.00 87 1000.0
20260508104131 47 95 0.0 0.0 0.00 0.00 0.00 90 999.9
20260508103931 47 95 0.0 0.0 0.00 0.00 0.00 93 999.9
20260508103731 46 95 0.0 0.0 0.00 0.00 0.00 93 999.9
20260508103531 46 95 0.0 0.0 0.00 0.00 0.00 93 1000.0
20260508103331 46 95 0.0 0.0 0.00 0.00 0.00 94 1000.0
20260508103131 46 95 0.0 0.0 0.00 0.00 0.00 95 1000.0
20260508102931 46 95 0.0 0.0 0.00 0.00 0.00 96 999.9
20260508102531 45 95 0.0 0.0 0.00 0.00 0.00 99 999.8
20260508102331 45 95 0.0 0.0 0.00 0.00 0.00 99 999.9
20260508102131 44 95 0.0 0.0 0.00 0.00 0.00 99 999.9
20260508101931 44 95 0.0 0.0 0.00 0.00 0.00 99 1000.0
20260508101731 44 95 0.0 0.0 0.00 0.00 0.00 99 1000.1
20260508101531 44 95 0.0 0.0 0.00 0.00 0.00 99 999.9
20260508101331 44 95 0.0 0.0 0.00 0.00 0.00 99 999.9
20260508100931 44 95 0.0 0.0 0.00 0.00 0.00 99 999.8
20260508100731 44 95 0.0 0.0 0.00 0.00 0.00 99 1000.0
20260508100330 43 95 0.0 0.0 0.00 0.00 0.00 99 999.8
20260508100131 43 95 0.0 0.0 0.00 0.00 0.00 99 999.8
20260508095931 43 95 0.0 0.0 0.00 0.00 0.00 99 999.9
20260508095730 42 95 0.0 0.0 0.00 0.00 0.00 99 999.9
20260508095530 40 95 0.0 0.0 0.00 0.00 0.00 99 999.7
20260508095330 39 95 0.0 0.0 0.00 0.00 0.00 99 999.8
20260508095131 39 95 0.0 0.0 0.00 0.00 0.00 99 999.8
20260508094930 38 95 0.0 0.0 0.00 0.00 0.00 99 999.8
20260508094730 38 95 0.0 0.0 0.00 0.00 0.00 99 999.8
20260508094530 38 95 0.0 0.0 0.00 0.00 0.00 99 1000.0
20260508094330 38 95 0.0 0.0 0.00 0.00 0.00 99 999.8
20260508094130 38 95 0.0 0.0 0.00 0.00 0.00 99 999.6
20260508093531 38 95 0.0 0.0 0.00 0.00 0.00 99 999.7
20260508093331 38 95 0.0 0.0 0.00 0.00 0.00 99 999.8
20260508093131 38 95 0.0 0.0 0.00 0.00 0.00 99 999.7
20260508092931 38 95 0.0 0.0 0.00 0.00 0.00 99 999.9
20260508092731 39 95 0.0 0.0 0.00 0.00 0.00 99 999.8
20260508092531 39 95 0.0 0.0 0.00 0.00 0.00 99 999.8
20260508092331 39 95 0.0 0.0 0.00 0.00 0.00 99 999.9
20260508092131 39 95 0.0 0.0 0.00 0.00 0.00 99 999.9
20260508091931 38 95 0.0 0.0 0.00 0.00 0.00 99 999.6
20260508091731 38 95 0.0 0.0 0.00 0.00 0.00 99 999.7
20260508091531 38 95 0.0 0.0 0.00 0.00 0.00 99 999.7
20260508091330 38 95 0.0 0.0 0.00 0.00 0.00 99 999.7
20260508091131 39 95 0.0 0.0 0.00 0.00 0.00 99 999.8
20260508090930 39 95 0.0 0.0 0.00 0.00 0.00 99 999.9
20260508090730 39 95 0.0 0.0 0.00 0.00 0.00 99 999.7
20260508090330 39 95 0.0 0.0 0.00 0.00 0.00 99 999.7
20260508090130 39 95 0.0 0.0 0.00 0.00 0.00 99 999.8
20260508085730 39 95 0.0 0.0 0.00 0.00 0.00 99 999.9
20260508085530 39 95 0.0 0.0 0.00 0.00 0.00 99 999.7
20260508085330 39 95 0.0 0.0 0.00 0.00 0.00 99 999.6
20260508085130 39 95 0.0 0.0 0.00 0.00 0.00 99 999.8
20260508084930 39 95 0.0 0.0 0.00 0.00 0.00 99 999.7
20260508084530 39 95 0.0 0.0 0.00 0.00 0.00 99 999.6
20260508084330 39 95 0.0 0.0 0.00 0.00 0.00 99 999.7
20260508084130 39 95 0.0 0.0 0.00 0.00 0.00 99 999.7
20260508083730 39 95 0.0 0.0 0.00 0.00 0.00 99 999.9
20260508083531 39 95 0.0 0.0 0.00 0.00 0.00 99 999.7
20260508083331 39 95 0.0 0.0 0.00 0.00 0.00 99 999.6
20260508083130 39 95 0.0 0.0 0.00 0.00 0.00 99 999.5
20260508082930 39 95 0.0 0.0 0.00 0.00 0.00 99 999.7
20260508082530 39 95 0.0 0.0 0.00 0.00 0.00 99 999.6
20260508082330 39 95 0.0 0.0 0.00 0.00 0.00 99 999.7
20260508082130 39 95 0.0 0.0 0.00 0.00 0.00 99 999.7
20260508081930 39 95 0.0 0.0 0.00 0.00 0.00 99 999.9
20260508081730 39 95 0.0 0.0 0.00 0.00 0.00 99 999.8
20260508081530 39 95 0.0 0.0 0.00 0.00 0.00 99 999.6
20260508081130 39 95 0.0 0.0 0.00 0.00 0.00 99 999.5
20260508080930 39 95 0.0 0.0 0.00 0.00 0.00 99 999.7
20260508080730 39 95 0.0 0.0 0.00 0.00 0.00 99 999.6
20260508080331 38 95 0.0 0.0 0.00 0.00 0.00 99 999.6
20260508080131 38 95 0.0 0.0 0.00 0.00 0.00 99 999.6
20260508075931 38 95 0.0 0.0 0.00 0.00 0.00 99 999.6
20260508075731 38 95 0.0 0.0 0.00 0.00 0.00 99 999.3
20260508075331 38 95 0.0 0.0 0.00 0.00 0.00 99 999.6
20260508074931 38 95 0.0 0.0 0.00 0.00 0.00 99 999.5
20260508074531 38 95 0.0 0.0 0.00 0.00 0.00 99 999.5
20260508074331 38 95 0.0 0.0 0.00 0.00 0.00 99 999.6
20260508074131 38 95 0.0 0.0 0.00 0.00 0.00 99 999.5
20260508073931 38 95 0.0 0.0 0.00 0.00 0.00 99 999.5
20260508073731 38 95 0.0 0.0 0.00 0.00 0.00 99 999.3
20260508073531 38 95 0.0 0.0 0.00 0.00 0.00 99 999.4
20260508073331 38 95 0.0 0.0 0.00 0.00 0.00 99 999.5
20260508073131 38 95 0.0 0.0 0.00 0.00 0.00 99 999.6
20260508072931 38 95 0.0 0.0 0.00 0.00 0.00 99 999.5
20260508072731 38 95 0.0 0.0 0.00 0.00 0.00 99 999.6
20260508072531 38 95 0.0 0.0 0.00 0.00 0.00 99 999.7
20260508072331 38 95 0.0 0.0 0.00 0.00 0.00 99 999.5
20260508072131 38 95 0.0 0.0 0.00 0.00 0.00 99 999.4
20260508071931 38 95 0.0 0.0 0.00 0.00 0.00 99 999.4
20260508071731 38 95 0.0 0.0 0.00 0.00 0.00 98 999.4
20260508071531 38 95 0.0 0.0 0.00 0.00 0.00 99 999.4
20260508070931 38 95 0.0 0.0 0.00 0.00 0.00 98 999.4
20260508070531 39 95 0.0 0.0 0.00 0.00 0.00 98 999.6
20260508070131 39 95 0.0 0.0 0.00 0.00 0.00 98 999.7
20260508065931 39 95 0.0 0.0 0.00 0.00 0.00 99 1000.0
20260508065731 39 95 0.0 0.0 0.00 0.00 0.00 98 999.9
20260508065131 39 95 0.0 0.0 0.00 0.00 0.00 98 999.9
20260508064930 39 95 0.0 0.0 0.00 0.00 0.00 99 999.8
20260508064731 39 95 0.0 0.0 0.00 0.00 0.00 98 999.6
20260508064531 39 95 0.0 0.0 0.00 0.00 0.00 98 999.6
20260508064131 40 95 0.0 0.0 0.00 0.00 0.00 98 999.5
20260508063931 40 95 0.0 0.0 0.00 0.00 0.00 98 999.5
20260508063731 40 95 0.0 0.0 0.00 0.00 0.00 98 999.5
20260508063531 40 95 0.0 0.0 0.00 0.00 0.00 98 999.4
20260508063331 40 95 0.0 0.0 0.00 0.00 0.00 98 999.5
20260508063131 40 95 0.0 0.0 0.00 0.00 0.00 98 999.5
20260508062931 40 95 0.0 0.0 0.00 0.00 0.00 98 999.6
20260508062731 40 95 0.0 0.0 0.00 0.00 0.00 98 999.7
20260508062331 40 95 0.0 0.0 0.00 0.00 0.00 98 999.8
20260508061931 40 95 0.0 0.0 0.00 0.00 0.00 98 999.8
20260508061731 40 95 0.0 0.0 0.00 0.00 0.00 98 999.6
20260508061531 40 95 0.0 0.0 0.00 0.00 0.00 98 999.6
20260508061331 40 95 0.0 0.0 0.00 0.00 0.00 98 999.5
20260508061131 40 95 0.0 0.0 0.00 0.00 0.00 98 999.5
20260508060931 40 95 0.0 0.0 0.00 0.00 0.00 98 999.5
20260508060731 41 95 0.0 0.0 0.00 0.00 0.00 98 999.4
20260508060531 41 95 0.0 0.0 0.00 0.00 0.00 98 999.5
20260508060331 41 95 0.0 0.0 0.00 0.00 0.00 98 999.7
20260508060131 41 95 0.0 0.0 0.00 0.00 0.00 98 999.6
20260508055930 41 95 0.0 0.0 0.00 0.00 0.00 98 999.5
20260508055730 41 95 0.0 0.0 0.00 0.00 0.00 98 999.7
20260508055330 41 95 0.0 0.0 0.00 0.00 0.00 98 999.6
20260508055131 41 95 0.0 0.0 0.00 0.00 0.00 98 999.5
20260508054930 41 95 0.0 0.0 0.00 0.00 0.00 98 999.5
20260508054731 41 95 0.0 0.0 0.00 0.00 0.00 98 999.5
20260508054530 41 95 0.0 0.0 0.00 0.00 0.00 98 999.5
20260508054330 41 95 0.0 0.0 0.00 0.00 0.00 98 999.1
20260508053931 42 95 0.0 0.0 0.00 0.00 0.00 98 999.7
20260508053731 42 95 0.0 0.0 0.00 0.00 0.00 98 999.7
20260508053531 42 95 0.0 0.0 0.00 0.00 0.00 98 999.7
20260508053331 42 95 0.0 0.0 0.00 0.00 0.00 98 999.8
20260508053131 42 95 0.0 0.0 0.00 0.00 0.00 98 999.8
20260508052931 42 95 0.0 0.0 0.00 0.00 0.00 98 999.8
20260508052731 42 95 0.0 0.0 0.00 0.00 0.00 98 1000.0
20260508052531 42 95 0.0 0.0 0.00 0.00 0.00 98 1000.2
20260508052331 42 95 0.0 0.0 0.00 0.00 0.00 98 1000.0
20260508052131 42 95 0.0 0.0 0.00 0.00 0.00 98 1000.0
20260508051931 42 95 0.0 0.0 0.00 0.00 0.00 98 999.9
20260508051731 42 95 0.0 0.0 0.00 0.00 0.00 98 999.8
20260508051532 42 95 0.0 0.0 0.00 0.00 0.00 98 1000.1
20260508051331 42 95 0.0 0.0 0.00 0.00 0.00 98 999.9
20260508050931 43 95 0.0 0.0 0.00 0.00 0.00 98 999.9
20260508050731 43 95 0.0 0.0 0.00 0.00 0.00 98 999.9
20260508050531 43 95 0.0 0.0 0.00 0.00 0.00 98 1000.1
20260508050330 43 95 0.0 0.0 0.00 0.00 0.00 98 999.9
20260508050131 43 95 0.0 0.0 0.00 0.00 0.00 98 1000.0
20260508045930 43 95 0.0 0.0 0.00 0.00 0.00 98 1000.0
20260508045731 43 95 0.0 0.0 0.00 0.00 0.00 98 999.8
20260508045530 43 95 0.0 0.0 0.00 0.00 0.00 98 1000.0
20260508045330 43 95 0.0 0.0 0.00 0.00 0.00 98 1000.1
20260508045130 43 95 0.0 0.0 0.00 0.00 0.00 98 1000.1
20260508044930 44 95 0.0 0.0 0.00 0.00 0.00 98 1000.0
20260508044730 44 95 0.0 0.0 0.00 0.00 0.00 98 1000.3
20260508044530 44 95 0.0 0.0 0.00 0.00 0.00 98 1000.1
20260508043931 44 95 0.0 0.0 0.00 0.00 0.00 98 999.9
20260508043531 44 95 0.0 0.0 0.00 0.00 0.00 98 1000.0
20260508043331 44 95 0.0 0.0 0.00 0.00 0.00 98 1000.3
20260508042931 44 95 0.0 0.0 0.00 0.00 0.00 98 1000.2
20260508042731 44 95 0.0 0.0 0.00 0.00 0.00 98 1000.3
20260508042531 44 95 0.0 0.0 0.00 0.00 0.00 98 1000.3
20260508042331 44 95 0.0 0.0 0.00 0.00 0.00 98 1000.2
20260508042131 44 95 0.0 0.0 0.00 0.00 0.00 98 1000.1
20260508041931 44 95 0.0 0.0 0.00 0.00 0.00 98 1000.2
20260508041731 44 95 0.0 0.0 0.00 0.00 0.00 98 1000.1
20260508041531 44 95 0.0 0.0 0.00 0.00 0.00 98 1000.1
20260508041331 44 95 0.0 0.0 0.00 0.00 0.00 97 1000.1
20260508041131 44 95 0.0 0.0 0.00 0.00 0.00 97 1000.3
20260508040931 44 95 0.0 0.0 0.00 0.00 0.00 97 1000.1
20260508040733 44 95 0.0 0.0 0.00 0.00 0.00 97 1000.0
20260508040531 44 95 0.0 0.0 0.00 0.00 0.00 97 1000.0
20260508040330 44 95 0.0 0.0 0.00 0.00 0.00 97 1000.2
20260508040130 44 95 0.0 0.0 0.00 0.00 0.00 97 1000.1
20260508035930 44 95 0.0 0.0 0.00 0.00 0.00 97 1000.0
20260508035730 44 95 0.0 0.0 0.00 0.00 0.00 97 1000.0
20260508035330 45 95 0.0 0.0 0.00 0.00 0.00 97 1000.1
20260508035130 45 95 0.0 0.0 0.00 0.00 0.00 97 1000.0
20260508034930 45 95 0.0 0.0 0.00 0.00 0.00 97 999.9
20260508034731 45 95 0.0 0.0 0.00 0.00 0.00 97 1000.2
20260508034530 45 95 0.0 0.0 0.00 0.00 0.00 97 1000.1
20260508034330 45 95 0.0 0.0 0.00 0.00 0.00 97 999.7
20260508034130 45 95 0.0 0.0 0.00 0.00 0.00 97 999.8
20260508033931 45 95 0.0 0.0 0.00 0.00 0.00 97 999.9
20260508033531 45 95 0.0 0.0 0.00 0.00 0.00 97 999.8
20260508033331 45 95 0.0 0.0 0.00 0.00 0.00 97 1000.0
20260508033131 45 95 0.0 0.0 0.00 0.00 0.00 97 1000.0
20260508032931 45 95 0.0 0.0 0.00 0.00 0.00 97 1000.2
20260508032731 45 95 0.0 0.0 0.00 0.00 0.00 97 1000.0
20260508032531 45 95 0.0 0.0 0.00 0.00 0.00 97 1000.2
20260508032331 45 95 0.0 0.0 0.00 0.00 0.00 97 1000.2
20260508032131 45 95 0.0 0.0 0.00 0.00 0.00 97 1000.1
20260508031931 45 95 0.0 0.0 0.00 0.00 0.00 97 1000.3
20260508031731 45 95 0.0 0.0 0.00 0.00 0.00 97 1000.3
20260508031531 45 95 0.0 0.0 0.00 0.00 0.00 97 1000.1
20260508031331 45 95 0.0 0.0 0.00 0.00 0.00 97 1000.2
20260508031131 45 95 0.0 0.0 0.00 0.00 0.00 97 1000.1
20260508030931 45 95 0.0 0.0 0.00 0.00 0.00 97 1000.3
20260508030730 45 95 0.0 0.0 0.00 0.00 0.00 96 1000.1
20260508030531 45 95 0.0 0.0 0.00 0.00 0.00 96 1000.6
20260508030330 45 95 0.0 0.0 0.00 0.00 0.00 96 1000.3
20260508030130 45 95 0.0 0.0 0.00 0.00 0.00 96 1000.3
20260508025930 45 95 0.0 0.0 0.00 0.99 0.00 96 1000.2
20260508025730 45 95 0.0 0.0 0.00 0.99 0.00 96 1000.1
20260508025530 46 95 0.0 0.0 0.00 0.99 0.00 96 1000.4
20260508025330 46 95 0.0 0.0 0.00 0.99 0.00 96 1000.3
20260508025130 46 95 0.0 0.0 0.00 0.99 0.00 96 1000.6
20260508024930 46 95 0.0 0.0 0.00 0.99 0.00 96 1000.4
20260508024130 46 95 0.0 0.0 0.00 0.99 0.00 96 1000.3
20260508023931 46 95 0.0 1.0 0.00 0.99 0.00 96 1000.4
20260508023731 46 95 0.0 0.0 0.00 0.99 0.00 96 1000.4
20260508023331 46 95 0.0 0.0 0.00 0.99 0.00 96 1000.5
20260508023131 46 95 0.0 0.0 0.00 0.99 0.00 96 1000.3
20260508022931 46 95 0.0 0.0 0.00 0.99 0.00 96 1000.5
20260508022731 46 95 0.0 0.0 0.00 0.99 0.00 96 1000.5
20260508022531 46 95 0.0 0.0 0.00 0.99 0.00 97 1000.4
20260508022331 46 95 0.0 0.0 0.00 0.99 0.00 97 1000.4
20260508021930 46 95 0.0 0.0 0.00 0.99 0.00 97 1000.5
20260508021730 47 95 0.0 0.0 0.00 0.99 0.00 97 1000.7
20260508021531 47 95 0.0 0.0 0.00 0.99 0.00 97 1000.5
20260508021130 47 95 0.0 0.0 0.00 0.99 0.00 96 1000.7
20260508020931 47 95 0.0 0.0 0.00 0.99 0.00 96 1000.7
20260508020730 47 95 0.0 0.0 0.00 0.99 0.00 96 1000.6
20260508020330 47 95 0.0 0.0 0.00 0.99 0.00 96 1000.3
20260508020130 47 95 0.0 0.0 0.00 0.99 0.00 96 1000.5
20260508015930 47 95 0.0 0.0 0.00 0.99 0.00 96 1000.6
20260508015731 47 95 0.0 0.0 0.00 0.99 0.00 96 1000.4
20260508015530 47 95 0.0 0.0 0.00 0.99 0.00 96 1000.8
20260508015330 47 95 0.0 0.0 0.00 0.99 0.00 96 1000.7
20260508015130 47 95 0.0 0.0 0.00 0.99 0.00 96 1000.6
20260508014930 47 95 0.0 0.0 0.00 0.99 0.00 96 1000.6
20260508014530 47 95 0.0 0.0 0.00 0.99 0.00 96 1000.7
20260508014330 47 95 0.0 0.0 0.00 0.99 0.00 95 1000.8
20260508014130 47 95 0.0 0.0 0.00 0.99 0.00 95 1000.8
20260508013930 47 95 0.0 0.0 0.00 0.99 0.00 95 1000.7
20260508013730 48 95 0.0 0.0 0.00 0.99 0.00 95 1000.7
20260508013330 48 95 0.0 0.0 0.00 0.99 0.00 95 1000.5
20260508013130 48 95 0.0 0.0 0.00 0.99 0.00 95 1000.6
20260508012930 48 95 0.0 0.0 0.00 0.99 0.00 95 1000.6
20260508012730 48 95 0.0 0.0 0.00 0.99 0.00 94 1000.6
20260508012530 48 95 0.0 0.0 0.00 0.99 0.00 94 1000.9
20260508012330 48 95 0.0 1.0 0.00 0.99 0.00 94 1000.6
20260508012130 48 95 0.0 0.0 0.00 0.99 0.00 94 1000.7
20260508011930 48 95 0.0 0.0 0.00 0.99 0.00 94 1000.6
20260508011730 49 95 0.0 0.0 0.00 0.99 0.00 94 1000.6
20260508011330 49 95 0.0 1.0 0.00 0.99 0.00 94 1000.5
20260508011130 49 95 0.0 0.0 0.00 0.99 0.00 93 1000.4
20260508010930 49 95 0.0 1.0 0.00 0.99 0.00 93 1000.3
20260508010730 49 95 0.0 1.0 0.00 0.99 0.00 93 1000.4
20260508010330 49 95 0.0 1.0 0.00 0.99 0.00 93 1000.4
20260508005930 49 95 0.0 1.0 0.00 0.99 0.00 93 1000.2
20260508005730 49 95 0.0 1.0 0.00 0.99 0.00 93 1000.2
20260508005530 49 95 1.0 1.0 0.00 0.99 0.00 93 1000.2
20260508005330 50 95 0.0 1.0 0.00 0.99 0.00 93 1000.3
20260508005130 50 95 0.0 0.0 0.00 0.99 0.00 93 1000.2
20260508004930 50 95 1.0 2.0 0.00 0.99 0.00 92 1000.4
20260508004730 50 95 0.0 1.0 0.00 0.99 0.00 92 1000.2
20260508004530 50 95 1.0 2.0 0.00 0.99 0.00 92 1000.4
20260508004330 50 96 1.0 1.0 0.00 0.99 0.00 92 1000.3
20260508004130 50 96 1.0 2.0 0.00 0.99 0.00 92 1000.4
20260508003929 51 127 1.0 1.0 0.00 0.99 0.00 92 1000.2
20260508003530 51 101 1.0 2.0 0.00 0.99 0.00 93 1000.2
20260508003330 51 111 2.0 2.0 0.00 0.99 0.00 94 1000.0
20260508003130 51 118 2.0 2.0 0.00 0.99 0.00 95 999.9
20260508002929 51 133 1.0 2.0 0.00 0.99 0.00 95 999.9
20260508002729 51 101 1.0 4.0 0.00 0.99 0.00 96 1000.1
20260508002529 51 93 1.0 2.0 0.00 0.99 0.00 96 1000.0
20260508002329 51 93 1.0 2.0 0.00 0.99 0.00 96 999.7
20260508002130 51 95 1.0 2.0 0.00 0.99 0.00 97 999.8
20260508001929 51 110 1.0 3.0 0.00 0.99 0.00 97 1000.2
20260508001729 51 82 3.0 6.0 0.00 0.99 0.00 97 999.9
20260508001530 51 88 0.0 3.0 0.00 0.99 0.00 97 999.9
20260508001129 51 92 0.0 1.0 0.00 0.99 0.00 97 999.9
20260508000929 51 92 0.0 0.0 0.00 0.99 0.00 97 999.8
20260508000729 51 92 1.0 1.0 0.00 0.99 0.00 97 999.8
20260508000529 51 92 0.0 0.0 0.00 0.99 0.00 96 999.7
20260508000330 51 92 0.0 0.0 0.00 0.99 0.00 96 999.7
20260508000130 51 92 0.0 0.0 0.00 0.99 0.00 96 999.7
20260507235930 51 92 0.0 0.0 0.00 0.99 0.00 96 999.8
20260507235729 52 92 0.0 0.0 0.00 0.99 0.00 96 999.7
20260507235530 52 92 0.0 0.0 0.00 0.99 0.00 96 999.6
20260507235329 52 92 0.0 0.0 0.00 0.99 0.00 96 999.6
20260507234929 52 92 0.0 0.0 0.00 0.99 0.00 96 999.7
20260507234730 52 92 0.0 0.0 0.00 0.99 0.00 96 999.6
20260507234329 52 92 0.0 0.0 0.00 0.99 0.00 95 999.7
20260507234129 52 92 0.0 0.0 0.00 0.99 0.00 95 999.8
20260507233929 53 92 0.0 0.0 0.00 0.99 0.00 95 999.7
20260507233729 53 92 0.0 0.0 0.00 0.99 0.00 95 999.6
20260507233529 53 92 0.0 0.0 0.00 0.99 0.00 95 999.7
20260507233329 53 92 0.0 0.0 0.00 0.99 0.00 95 999.7
20260507233129 53 92 0.0 0.0 0.00 0.99 0.00 94 999.6
20260507232929 53 92 0.0 0.0 0.00 0.99 0.00 94 999.5
20260507232729 53 92 0.0 0.0 0.00 0.99 0.00 94 999.7
20260507232529 53 92 0.0 0.0 0.00 0.99 0.00 94 999.5
20260507232330 53 92 0.0 0.0 0.00 0.99 0.00 94 999.5
20260507232129 53 92 0.0 0.0 0.00 0.99 0.00 94 999.6
20260507231929 53 92 0.0 0.0 0.00 0.99 0.00 94 999.6
20260507231729 53 92 0.0 0.0 0.00 0.99 0.00 94 999.5
20260507231529 54 92 0.0 0.0 0.00 0.99 0.00 94 999.5
20260507231329 53 92 0.0 0.0 0.00 0.99 0.00 94 999.5
20260507231130 53 92 0.0 0.0 0.00 0.99 0.00 94 999.6
20260507230929 53 92 0.0 0.0 0.00 0.99 0.00 94 999.5
20260507230729 53 92 0.0 0.0 0.00 0.99 0.00 94 999.6
20260507230529 53 92 0.0 0.0 0.00 0.99 0.00 95 999.5
20260507230329 53 92 0.0 0.0 0.00 0.99 0.00 95 999.5
20260507225930 53 92 0.0 0.0 0.00 0.99 0.00 95 999.4
20260507225730 53 92 0.0 0.0 0.00 0.99 0.00 96 999.5
20260507225529 53 92 0.0 0.0 0.00 0.99 0.00 96 999.5
20260507225329 53 92 0.0 0.0 0.00 0.99 0.00 96 999.4
20260507224929 53 92 0.0 0.0 0.00 0.99 0.00 96 999.5
20260507224729 53 91 0.0 0.0 0.00 0.99 0.00 96 999.6
20260507224529 53 92 0.0 0.0 0.00 0.99 0.00 96 999.4
20260507224330 53 91 0.0 0.0 0.00 0.99 0.00 95 999.4
20260507224129 53 91 0.0 0.0 0.00 0.99 0.00 95 999.3
20260507223929 53 91 0.0 1.0 0.00 0.99 0.00 95 999.5
20260507223529 53 91 0.0 0.0 0.00 0.99 0.00 95 999.4
20260507223329 53 91 0.0 0.0 0.00 0.99 0.00 95 999.6
20260507223129 53 91 1.0 1.0 0.00 0.99 0.00 95 999.2
20260507222929 53 91 1.0 1.0 0.00 0.99 0.00 95 999.6
20260507222729 53 92 1.0 1.0 0.00 0.99 0.00 96 999.4
20260507222529 53 92 1.0 2.0 0.00 0.99 0.00 96 999.4
20260507222330 53 91 2.0 2.0 0.00 0.99 0.00 96 999.6
20260507222130 53 100 3.0 3.0 0.00 0.99 0.00 96 999.8
20260507221729 53 91 3.0 4.0 0.00 0.99 0.00 96 999.7
20260507221529 53 86 3.0 3.0 0.00 0.99 0.00 96 999.8
20260507221329 53 105 1.0 1.0 0.00 0.99 0.00 96 999.8
20260507220929 53 89 1.0 2.0 0.00 0.99 0.00 96 999.8
20260507220529 53 90 0.0 1.0 0.00 0.99 0.00 96 999.7
20260507220329 53 90 1.0 2.0 0.00 0.99 0.00 96 999.7
20260507220130 53 114 1.0 1.0 0.00 0.99 0.00 96 999.6
20260507215729 53 113 1.0 2.0 0.00 0.99 0.00 96 999.8
20260507215529 53 79 1.0 2.0 0.00 0.99 0.00 95 999.7
20260507215129 53 70 2.0 1.0 0.00 0.99 0.00 95 999.5
20260507214730 54 81 1.0 4.0 0.00 0.99 0.00 95 999.4
20260507214530 54 25 1.0 1.0 0.00 0.99 0.00 95 999.6
20260507214329 54 24 1.0 2.0 0.00 0.99 0.00 95 999.4
20260507214129 54 23 1.0 1.0 0.00 0.99 0.00 95 999.2
20260507213930 54 23 1.0 2.0 0.00 0.99 0.00 95 999.4
20260507213530 54 23 1.0 1.0 0.00 0.99 0.00 94 999.4
20260507213330 54 358 1.0 2.0 0.00 0.99 0.00 95 999.4
20260507213130 54 357 0.0 1.0 0.00 0.99 0.00 95 999.3
20260507212930 54 358 0.0 1.0 0.00 0.99 0.00 95 999.1
20260507212730 54 358 1.0 1.0 0.00 0.99 0.00 95 999.2
20260507212530 54 358 0.0 1.0 0.00 0.99 0.00 95 999.2
20260507212330 54 358 0.0 1.0 0.00 0.99 0.00 95 999.2
20260507212130 54 357 1.0 2.0 0.00 0.99 0.00 95 999.2
20260507211929 54 356 2.0 2.0 0.00 0.99 0.00 95 999.4
20260507211729 54 0 0.0 1.0 0.00 0.99 0.00 95 999.2
20260507211529 54 359 1.0 1.0 0.00 0.99 0.00 94 999.3
20260507211330 54 357 1.0 4.0 0.00 0.99 0.00 94 999.3
20260507211130 54 16 0.0 1.0 0.00 0.99 0.00 94 999.4
20260507210530 54 7 1.0 1.0 0.00 0.99 0.00 94 999.2
20260507210329 54 7 0.0 2.0 0.00 0.99 0.00 94 999.3
20260507210129 54 16 1.0 2.0 0.00 0.99 0.00 94 999.2
20260507205929 55 16 1.0 2.0 0.00 0.99 0.00 94 999.4
20260507205729 55 16 0.0 2.0 0.00 0.99 0.00 94 999.4
20260507205529 55 19 1.0 3.0 0.00 0.99 0.00 94 999.4
20260507205329 55 356 0.0 1.0 0.00 0.99 0.00 94 999.5
20260507205129 54 356 1.0 2.0 0.00 0.99 0.00 94 999.4
20260507204929 54 354 1.0 1.0 0.00 0.99 0.00 94 999.4
20260507204529 54 319 0.0 1.0 0.00 0.99 0.00 94 999.4
20260507204329 54 319 0.0 1.0 0.00 0.99 0.00 94 999.5
20260507204129 54 324 0.0 4.0 0.00 0.99 0.00 94 999.3
20260507203929 54 8 2.0 3.0 0.00 0.99 0.00 94 999.3
20260507203729 54 17 0.0 2.0 0.00 0.99 0.00 94 999.2
20260507203529 54 313 0.0 3.0 0.00 0.99 0.00 94 999.1
20260507203329 54 330 0.0 1.0 0.00 0.99 0.00 94 999.0
20260507203129 54 310 0.0 1.0 0.00 0.99 0.00 94 999.1
20260507202929 54 310 1.0 3.0 0.00 0.99 0.00 94 999.1
20260507202529 54 330 1.0 1.0 0.00 0.99 0.00 93 999.2
20260507202129 54 344 1.0 2.0 0.00 0.99 0.00 93 998.9
20260507201929 54 359 1.0 1.0 0.00 0.99 0.00 93 999.3
20260507201729 54 295 2.0 2.0 0.00 0.99 0.00 93 999.0
20260507201329 54 352 1.0 2.0 0.00 0.99 0.00 95 999.4
20260507201129 54 358 0.0 0.0 0.00 0.99 0.00 95 999.0
20260507200929 54 358 0.0 2.0 0.00 0.99 0.00 94 999.3
20260507200729 54 319 0.0 0.0 0.00 0.99 0.00 94 999.2
20260507200529 54 319 2.0 3.0 0.00 0.99 0.00 94 999.3
20260507200329 53 353 0.0 2.0 0.00 0.99 0.00 94 999.4
20260507200129 53 345 0.0 1.0 0.00 0.99 0.00 94 999.3
20260507195929 54 345 1.0 2.0 0.00 0.99 0.00 94 999.3
20260507195529 53 319 1.0 2.0 0.00 0.99 0.00 94 999.1
20260507195329 53 321 1.0 2.0 0.00 0.99 0.00 94 999.4
20260507195129 53 355 1.0 2.0 0.00 0.99 0.00 94 999.4
20260507194729 53 18 1.0 4.0 0.00 0.99 0.00 96 999.3
20260507194529 53 5 1.0 4.0 0.00 0.99 0.00 96 999.4
20260507194129 52 307 1.0 1.0 0.00 0.99 0.00 96 999.8
20260507193929 52 311 4.0 4.0 0.00 0.99 0.00 96 999.6
20260507193729 52 326 2.0 6.0 0.00 0.99 0.00 96 999.6
20260507193529 53 311 3.0 3.0 0.05 0.99 0.00 97 999.5
20260507193129 52 319 0.0 1.0 0.05 0.99 0.00 97 999.5
20260507192929 52 319 1.0 1.0 0.05 0.99 0.00 97 999.6
20260507192529 52 351 1.0 2.0 0.00 0.98 0.00 97 999.8
20260507192329 52 303 0.0 1.0 0.00 0.98 0.00 97 999.6
20260507192129 52 304 1.0 3.0 0.00 0.98 0.00 97 999.4
20260507191929 52 321 0.0 1.0 0.00 0.98 0.00 97 999.6
20260507191729 52 319 1.0 4.0 0.00 0.98 0.00 96 999.6
20260507191529 51 283 2.0 2.0 0.00 0.98 0.00 96 999.5
20260507191329 51 298 2.0 2.0 0.00 0.98 0.00 96 999.8
20260507190929 51 44 2.0 3.0 0.07 0.98 0.00 96 999.5
20260507190529 51 323 0.0 2.0 0.07 0.98 0.00 97 999.7
20260507190329 51 44 1.0 1.0 0.00 0.97 0.00 96 999.7
20260507190129 51 45 2.0 4.0 0.00 0.97 0.00 96 999.7
20260507185929 51 356 2.0 2.0 0.00 0.97 0.00 96 999.6
20260507185729 51 38 3.0 4.0 0.00 0.97 0.00 96 999.8
20260507185529 51 56 1.0 3.0 0.00 0.97 0.00 96 999.9
20260507185329 52 63 3.0 6.0 0.00 0.97 0.00 96 999.7
20260507185129 52 13 2.0 3.0 0.00 0.97 0.00 96 999.9
20260507184929 52 53 2.0 2.0 0.00 0.97 0.00 96 999.9
20260507184729 52 24 1.0 3.0 0.00 0.97 0.00 96 999.7
20260507184529 52 7 2.0 3.0 0.00 0.97 0.00 96 999.6
20260507184329 52 7 1.0 2.0 0.00 0.97 0.00 96 999.6
20260507183929 52 314 2.0 3.0 0.00 0.97 0.00 96 999.5
20260507183529 52 328 1.0 3.0 0.00 0.97 0.00 96 999.6
20260507183329 52 330 3.0 6.0 0.00 0.97 0.00 96 999.4
20260507183129 52 321 2.0 4.0 0.00 0.97 0.00 96 999.5
20260507182929 52 2 3.0 4.0 0.00 0.97 0.00 96 999.2
20260507182729 52 317 1.0 2.0 0.00 0.97 0.00 96 999.2
20260507182329 52 333 3.0 7.0 0.00 0.97 0.00 96 999.6
20260507182129 52 352 1.0 2.0 0.00 0.97 0.00 95 999.4
20260507181929 52 7 1.0 4.0 0.00 0.97 0.00 95 999.6
20260507181729 52 16 1.0 3.0 0.00 0.97 0.00 96 999.4
20260507181529 52 359 1.0 3.0 0.00 0.97 0.00 96 999.1
20260507181329 52 307 3.0 4.0 0.00 0.97 0.00 96 999.1
20260507181129 52 28 1.0 4.0 0.00 0.97 0.00 96 999.3
20260507180729 52 37 2.0 6.0 0.00 0.97 0.00 96 998.8
20260507180529 52 3 1.0 2.0 0.00 0.97 0.00 96 998.4
20260507180329 52 244 0.0 1.0 0.00 0.97 0.00 96 998.0
20260507180129 52 210 1.0 1.0 0.00 0.97 0.00 96 997.9
20260507175929 52 175 0.0 1.0 0.00 0.97 0.00 96 998.2
20260507175729 52 176 1.0 1.0 0.00 0.97 0.00 96 998.3
20260507175529 52 169 0.0 3.0 0.05 0.97 0.00 96 997.8
20260507175329 52 259 1.0 10.0 0.05 0.97 0.00 97 997.5
20260507175129 52 266 1.0 3.0 0.05 0.97 0.00 97 998.0
20260507174929 52 257 1.0 4.0 0.05 0.97 0.00 97 998.3
20260507174729 52 233 2.0 2.0 0.05 0.97 0.00 97 998.4
20260507174529 52 235 3.0 3.0 0.07 0.96 0.00 97 998.6
20260507174329 52 268 1.0 3.0 0.07 0.96 0.00 97 998.5
20260507174129 52 293 2.0 4.0 0.07 0.96 0.00 97 998.8
20260507173929 52 286 1.0 1.0 0.07 0.96 0.00 97 999.0
20260507173730 52 295 1.0 2.0 0.07 0.96 0.00 97 999.1
20260507173529 52 294 1.0 2.0 0.00 0.95 0.00 97 999.2
20260507173329 52 295 1.0 1.0 0.00 0.95 0.00 97 999.4
20260507173129 52 294 2.0 1.0 0.05 0.95 0.00 97 999.3
20260507172929 52 297 0.0 1.0 0.05 0.95 0.00 97 999.5
20260507172329 52 316 1.0 1.0 0.05 0.95 0.00 97 1000.0
20260507171929 52 317 1.0 2.0 0.07 0.94 0.00 97 1000.0
20260507171728 52 298 1.0 1.0 0.07 0.94 0.00 97 1000.1
20260507171529 52 298 1.0 1.0 0.07 0.94 0.00 97 999.9
20260507171329 52 298 0.0 1.0 0.07 0.94 0.00 97 1000.0
20260507171129 51 298 0.0 0.0 0.05 0.93 0.00 97 1000.0
20260507170929 51 298 0.0 1.0 0.12 0.93 0.00 97 1000.0
20260507170729 51 298 0.0 0.0 0.12 0.93 0.00 97 999.9
20260507170529 51 299 1.0 1.0 0.12 0.93 0.00 97 1000.3
20260507170329 51 299 0.0 1.0 0.07 0.92 0.00 97 1000.2
20260507170129 51 299 0.0 2.0 0.07 0.92 0.00 97 1000.4
20260507165929 51 289 1.0 3.0 0.00 0.91 0.00 97 1000.5
20260507165729 51 311 2.0 3.0 0.00 0.91 0.00 97 1000.9
20260507165529 51 294 0.0 3.0 0.00 0.91 0.00 97 1000.6
20260507165129 51 318 0.0 1.0 0.00 0.91 0.00 97 1000.3
20260507164929 51 318 0.0 2.0 0.00 0.91 0.00 97 1000.2
20260507164329 51 318 1.0 1.0 0.07 0.91 0.00 97 1000.0
20260507164129 51 315 0.0 1.0 0.07 0.91 0.00 97 1000.1
20260507163929 51 315 0.0 0.0 0.07 0.91 0.00 97 999.9
20260507163729 51 315 0.0 0.0 0.00 0.90 0.00 97 999.7
20260507163329 51 307 0.0 0.0 0.05 0.90 0.00 97 1000.1
20260507163129 51 305 0.0 2.0 0.12 0.90 0.00 97 1000.2
20260507162929 51 314 2.0 3.0 0.17 0.90 0.00 97 1000.2
20260507162528 51 301 1.0 3.0 0.24 0.89 0.00 97 1000.4
20260507162329 51 324 1.0 2.0 0.24 0.88 0.00 97 1000.7
20260507162129 51 317 1.0 3.0 0.19 0.87 0.00 97 1000.8
20260507161729 51 331 1.0 2.0 0.17 0.86 0.00 97 1001.0
20260507161328 51 317 2.0 2.0 0.12 0.84 0.00 97 1001.1
20260507161128 51 321 4.0 4.0 0.17 0.84 0.00 97 1001.1
20260507160928 51 351 0.0 2.0 0.19 0.83 0.00 97 1001.0
20260507160728 51 9 2.0 2.0 0.19 0.83 0.00 97 1001.2
20260507160528 51 5 2.0 3.0 0.17 0.82 0.00 97 1001.1
20260507160329 51 325 2.0 3.0 0.24 0.82 0.00 97 1001.1
20260507160129 51 334 1.0 3.0 0.26 0.81 0.00 97 1000.9
20260507155329 51 348 2.0 3.0 0.24 0.78 0.00 97 1001.1
20260507154929 51 338 3.0 4.0 0.19 0.76 0.00 97 1001.1
20260507154728 51 332 1.0 2.0 0.17 0.75 0.00 97 1001.1
20260507154528 51 330 0.0 1.0 0.17 0.75 0.00 96 1001.0
20260507154328 51 330 1.0 1.0 0.19 0.74 0.00 96 1001.0
20260507153529 51 319 1.0 4.0 0.31 0.72 0.00 96 1001.4
20260507153329 51 5 1.0 2.0 0.31 0.71 0.00 96 1001.3
20260507153129 51 9 1.0 2.0 0.43 0.71 0.00 96 1001.2
20260507152929 51 335 6.0 8.0 0.43 0.69 0.00 96 1001.5
20260507152529 51 325 4.0 4.0 0.54 0.67 0.00 96 1001.6
20260507152329 52 331 1.0 2.0 0.64 0.66 0.00 96 1001.6
20260507152129 52 345 1.0 7.0 0.66 0.63 0.00 96 1001.7
20260507151929 52 344 2.0 3.0 0.78 0.61 0.00 96 1002.2
20260507151329 52 335 1.0 2.0 0.59 0.54 0.00 96 1002.0
20260507151129 52 330 2.0 2.0 0.43 0.50 0.00 96 1001.9
20260507150929 52 18 2.0 3.0 0.24 0.46 0.00 96 1002.1
20260507150729 52 322 2.0 4.0 0.24 0.45 0.00 96 1002.1
20260507150529 52 1 1.0 3.0 0.19 0.44 0.00 96 1001.9
20260507150128 52 22 1.0 2.0 0.31 0.43 0.00 96 1002.0
20260507145928 52 325 2.0 6.0 0.38 0.42 0.00 96 1001.8
20260507145728 52 338 3.0 4.0 0.35 0.41 0.00 96 1001.7
20260507145528 53 347 3.0 4.0 0.43 0.41 0.00 96 1001.6
20260507145328 53 332 3.0 3.0 0.31 0.39 0.00 96 1002.2
20260507145128 53 9 2.0 2.0 0.28 0.38 0.00 96 1002.1
20260507144928 53 7 2.0 13.0 0.17 0.36 0.00 96 1002.3
20260507144728 53 352 7.0 9.0 0.05 0.34 0.00 96 1002.4
20260507144528 53 13 3.0 7.0 0.12 0.34 0.00 96 1002.2
20260507144328 53 358 3.0 6.0 0.07 0.33 0.00 96 1002.1
20260507144128 53 350 2.0 7.0 0.07 0.33 0.00 96 1002.1
20260507143929 53 318 4.0 6.0 0.12 0.33 0.00 96 1002.1
20260507143729 53 307 2.0 3.0 0.12 0.33 0.00 96 1002.0
20260507143529 53 344 2.0 4.0 0.12 0.32 0.00 96 1002.1
20260507143329 53 305 4.0 4.0 0.17 0.32 0.00 96 1002.0
20260507142529 53 4 3.0 6.0 0.00 0.29 0.00 96 1002.1
20260507142329 53 342 4.0 6.0 0.00 0.29 0.00 97 1002.0
20260507142129 53 9 0.0 2.0 0.07 0.29 0.00 97 1001.9
20260507141929 53 333 1.0 2.0 0.07 0.29 0.00 97 1002.2
20260507141729 53 319 3.0 4.0 0.07 0.29 0.00 97 1002.0
20260507141329 53 338 2.0 7.0 0.14 0.29 0.00 96 1002.2
20260507141129 53 317 4.0 7.0 0.07 0.28 0.00 96 1002.1
20260507140929 53 31 3.0 7.0 0.07 0.28 0.00 96 1001.8
20260507140729 53 20 2.0 8.0 0.07 0.28 0.00 96 1001.8
20260507140529 53 351 3.0 7.0 0.07 0.28 0.00 96 1001.9
20260507140329 54 10 2.0 8.0 0.00 0.27 0.00 96 1002.2
20260507140129 54 325 0.0 8.0 0.00 0.27 0.00 96 1002.1
20260507135929 54 329 4.0 9.0 0.00 0.27 0.00 96 1002.1
20260507135329 54 358 2.0 3.0 0.00 0.27 0.00 96 1002.2
20260507135129 54 327 3.0 8.0 0.00 0.27 0.00 96 1002.1
20260507134929 54 318 10.0 15.0 0.00 0.27 0.00 96 1002.3
20260507134729 54 276 5.0 8.0 0.00 0.27 0.00 96 1002.3
20260507134529 54 338 7.0 11.0 0.00 0.27 0.00 96 1002.3
20260507134129 54 345 3.0 8.0 0.00 0.27 0.00 96 1002.1
20260507133929 54 313 6.0 9.0 0.00 0.27 0.00 96 1002.0
20260507133729 54 342 9.0 10.0 0.00 0.27 0.00 96 1002.1
20260507133529 54 330 1.0 6.0 0.00 0.27 0.00 96 1002.2
20260507133329 54 4 5.0 7.0 0.00 0.27 0.00 96 1002.2
20260507133129 54 320 7.0 8.0 0.00 0.27 0.00 96 1002.3
20260507132929 54 329 6.0 11.0 0.00 0.27 0.00 96 1002.5
20260507132529 54 306 2.0 7.0 0.00 0.27 0.00 96 1002.6
20260507132329 54 329 6.0 7.0 0.00 0.27 0.00 96 1002.4
20260507131929 54 344 5.0 9.0 0.00 0.27 0.00 96 1002.7
20260507131729 54 324 7.0 9.0 0.00 0.27 0.00 96 1002.7
20260507131529 54 40 3.0 9.0 0.00 0.27 0.00 96 1002.5
20260507131329 54 0 2.0 6.0 0.00 0.27 0.00 96 1002.5
20260507131129 54 293 6.0 8.0 0.00 0.27 0.00 96 1002.5
20260507130729 54 0 2.0 7.0 0.00 0.27 0.00 96 1002.7
20260507130529 54 23 4.0 7.0 0.00 0.27 0.00 96 1002.5
20260507130328 54 331 2.0 9.0 0.00 0.27 0.00 96 1002.4
20260507130128 54 317 2.0 8.0 0.00 0.27 0.00 96 1002.7
20260507125928 54 341 2.0 9.0 0.00 0.27 0.00 96 1002.9
20260507125728 54 340 5.0 13.0 0.00 0.27 0.00 96 1003.0
20260507125528 54 338 5.0 10.0 0.00 0.27 0.00 96 1003.0
20260507125129 54 17 8.0 13.0 0.00 0.27 0.00 96 1003.1
20260507124928 54 311 5.0 14.0 0.00 0.27 0.00 96 1003.4
20260507124728 54 321 4.0 14.0 0.00 0.27 0.00 95 1003.4
20260507124328 54 242 4.0 7.0 0.00 0.27 0.00 95 1003.3
20260507123728 54 290 1.0 6.0 0.00 0.27 0.00 95 1003.5
20260507123528 54 319 5.0 8.0 0.00 0.27 0.00 95 1003.2
20260507123129 54 352 3.0 9.0 0.00 0.27 0.00 95 1003.4
20260507122928 55 287 6.0 13.0 0.00 0.27 0.00 95 1003.4
20260507122729 55 311 1.0 8.0 0.00 0.27 0.00 95 1003.2
20260507122528 55 16 2.0 9.0 0.00 0.27 0.00 95 1003.5
20260507122328 55 312 5.0 14.0 0.00 0.27 0.00 95 1003.2
20260507121928 55 303 4.0 9.0 0.00 0.27 0.00 95 1003.4
20260507121528 55 1 3.0 7.0 0.00 0.27 0.00 95 1003.3
20260507121328 55 0 4.0 6.0 0.00 0.27 0.00 95 1003.4
20260507121129 55 16 2.0 9.0 0.00 0.27 0.00 95 1003.4
20260507120928 55 310 4.0 9.0 0.00 0.27 0.00 95 1003.4
20260507120728 55 317 10.0 11.0 0.00 0.27 0.00 95 1003.4
20260507120529 55 333 6.0 8.0 0.00 0.27 0.00 95 1003.3
20260507120329 55 341 3.0 9.0 0.05 0.27 0.00 95 1003.4
20260507115528 55 335 8.0 14.0 0.05 0.27 0.00 95 1003.6
20260507115328 55 26 9.0 14.0 0.00 0.26 0.00 95 1003.6
20260507115129 55 18 3.0 15.0 0.00 0.26 0.00 95 1003.8
20260507114929 55 293 4.0 15.0 0.00 0.26 0.00 95 1003.8
20260507114729 55 341 5.0 9.0 0.00 0.26 0.00 96 1003.7
20260507114328 55 344 4.0 8.0 0.00 0.26 0.00 96 1003.8
20260507114129 55 308 4.0 8.0 0.00 0.26 0.00 96 1003.5
20260507113929 55 7 4.0 9.0 0.00 0.26 0.00 96 1003.6
20260507113728 54 296 2.0 7.0 0.00 0.26 0.00 96 1003.7
20260507113528 54 292 4.0 10.0 0.00 0.26 0.00 96 1003.8
20260507113328 54 292 2.0 4.0 0.00 0.26 0.00 96 1003.6
20260507112928 54 295 4.0 7.0 0.00 0.26 0.00 96 1003.6
20260507112328 54 341 5.0 7.0 0.00 0.26 0.00 95 1003.9
20260507112129 54 288 1.0 4.0 0.00 0.26 0.00 95 1003.8
20260507111928 54 294 4.0 6.0 0.00 0.26 0.00 95 1003.7
20260507111728 55 343 2.0 4.0 0.00 0.26 0.00 95 1003.6
20260507111528 55 51 4.0 6.0 0.00 0.26 0.00 95 1003.6